Location: Saint Louis
(38.6272°N, 90.1978°W)
Time: 01:57:15

ISS - Pass Details

Date: 16 July 2013
Orbit: 400 x 408 km, 51.6° (Epoch: 24 October)

Event Time Altitude Azimuth Distance (km) Brightness Sun altitude
Exits shadow 02:39:15 23° 6° (N) 903 -0.9 -26.3°
Drops below altitude 10° 02:41:06 10° 33° (NNE) 1,474 0.5 -26.1°
Enters shadow 03:39:44 -67° 242° (WSW) 12,202 4.1 -20.2°
